Location: *
(38.4303°S, 157.0822°W)
Time: 14:55:12
(UTC+00:00)

COSMOS 2428 - Pass Details

Date: 21 May 2024
Orbit: 844 x 856 km, 70.9° (Epoch: 14 June)

Event Time Altitude Azimuth Distance (km) Brightness Sun altitude
Rises 16:25:14 0° 354° (N) 3,408 6.0 -12.5°
Reaches altitude 10° 16:27:43 10° 358° (N) 2,482 5.3 -12.0°
Maximum altitude 16:33:14 52° 73° (ENE) 1,064 3.7 -11.0°
Drops below altitude 10° 16:38:50 10° 147° (SSE) 2,517 5.4 -9.9°
Sets 16:41:21 0° 152° (SSE) 3,461 6.0 -9.4°
